This is the latest recevied weather packets stored in our database for station/object JM1YTT-13. If no packets are shown the sender has not sent any weather packets the latest 10 day(s).
| Time | Temp. | Humidity | Pressure | Rain* | Wind** | Luminosity | Snow |
|---|---|---|---|---|---|---|---|
| 1777560190 | 12.22° C | 87% | 1016.7 hPa | 0 mm | - | - | - |
| 1777558390 | 12.78° C | 83% | 1017.2 hPa | 0 mm | - | - | - |
| 1777556590 | 13.33° C | 82% | 1017.7 hPa | 0 mm | - | - | - |
| 1777554790 | 13.33° C | 81% | 1017.8 hPa | 0 mm | - | - | - |
| 1777552990 | 13.33° C | 80% | 1018.2 hPa | 0 mm | - | - | - |
| 1777551190 | 13.33° C | 76% | 1018.7 hPa | 0 mm | - | - | - |
| 1777549390 | 13.33° C | 73% | 1019 hPa | 0 mm | - | - | - |
| 1777547590 | 13.33° C | 72% | 1019 hPa | 0 mm | - | - | - |
| 1777545790 | 13.33° C | 73% | 1019 hPa | 0 mm | - | - | - |
| 1777543990 | 13.33° C | 73% | 1019.1 hPa | 0 mm | - | - | - |
| 1777542190 | 13.33° C | 73% | 1019 hPa | 0 mm | - | - | - |
| 1777540390 | 13.33° C | 72% | 1019 hPa | 0 mm | - | - | - |
| 1777538590 | 13.89° C | 71% | 1018.7 hPa | 0 mm | - | - | - |
| 1777536790 | 13.89° C | 71% | 1018.6 hPa | 0 mm | - | - | - |
| 1777534990 | 14.44° C | 69% | 1018.9 hPa | 0 mm | - | - | - |
| 1777533190 | 14.44° C | 69% | 1019.2 hPa | 0 mm | - | - | - |
| 1777531390 | 15° C | 67% | 1019.3 hPa | 0 mm | - | - | - |
| 1777529590 | 15° C | 62% | 1019.6 hPa | 0 mm | - | - | - |
| 1777527790 | 15.56° C | 59% | 1019.6 hPa | 0 mm | - | - | - |
| 1777525990 | 15.56° C | 60% | 1019.7 hPa | 0 mm | - | - | - |
| 1777524190 | 15.56° C | 57% | 1020 hPa | 0 mm | - | - | - |
| 1777522390 | 16.11° C | 61% | 1020.2 hPa | 0 mm | - | - | - |
| 1777520590 | 16.11° C | 61% | 1020.3 hPa | 0 mm | - | - | - |
| 1777518790 | 15.56° C | 62% | 1020.7 hPa | 0 mm | - | - | - |
| 1777516990 | 16.11° C | 64% | 1021 hPa | 0 mm | - | - | - |
* Rain latest hour (hover to see other rain measurements)
** Current wind speed in m/s (hover to see current wind gust speed)